1998-067LW

Last updated on Thu May 25 2017 01:15:03 GMT+0100 (British Summer Time)

1 42715U 98067LW 17144.25480804 .00010453 00000-0 16140-3 0 9995 2 42715 51.6402 157.5715 0004218 147.0465 302.2400 15.54726172 788
UTC large
Height (km)
Speed (km/s)
/
Latitude / Longitude
Inclination (degrees)
Orbital Period (minutes)
Azimuth
Elevation
Range (km)
Doppler Factor

Next 0 passes for location: London (51.5072 / 0.1276)

Sorry there are no passes over London.